Home > Weather > Oxnard > Past weeks

Flag for USA Past Weather in Oxnard, California, USA — Yesterday and Last 2 Weeks

Now
66 °F

Fog.


Feels Like: 66 °F
Forecast: 66 / 76 °F
Wind: 6 mph from West

Location: Oxnard Airport

Current Time: Jul 30, 2016 at 10:30:41 PM

Latest Report: Jul 30, 2016 at 9:51 PM


Visibility: 4 mi

Pressure: 29.86 "Hg

Humidity: 96%

Dew Point: 65 °F

Location of OxnardLocation

Past Weather in Oxnard — Graph

°F

Oxnard Temperature Yesterday

Maximum temperature yesterday: 74 °F (at 11:51 AM)
Minimum temperature yesterday: 63 °F (at 3:51 AM)
Average temperature yesterday: 68 °F

High & Low Weather Summary for the Past Weeks

 TemperatureHumidityPressure
High81 °F (Jul 23, 2:51 PM)100% (Jul 24, 2:51 AM)30.04 "Hg (Jul 24, 2:51 AM)
Low59 °F (Jul 19, 4:51 AM)49% (Jul 23, 2:51 PM)29.77 "Hg (Jul 29, 6:51 PM)
Average69 °F79%29.90 "Hg
* Reported Jul 15 9:00 PM — Jul 30 9:01 PM, Oxnard, Weather by CustomWeather, © 2016

Note: Actual official high and low records may vary slightly from our data, if they occured in-between our weather recording intervals... More about our weather records

Advertising

Oxnard Weather History for the Previous 24 Hours

Scroll right to see more
 ConditionsComfort  
Time TempWeatherWind HumidityBarometerVisibility
9:01 PM
Sat, Jul 30
66 °FFog.3 mph96%29.85 "Hg4 mi
8:51 PM66 °FFog.6 mph96%29.84 "Hg2 mi
8:03 PM67 °FFog.8 mph93%29.83 "Hg2 mi
7:51 PM67 °FFog.8 mph93%29.83 "Hg5 mi
6:51 PM70 °FFog.13 mph87%29.82 "Hg6 mi
5:51 PM74 °FSunny.8 mph76%29.82 "Hg9 mi
4:51 PM74 °FSunny.9 mph74%29.81 "Hg10 mi
4:01 PM74 °FScattered clouds.8 mph74%29.83 "Hg10 mi
3:51 PM73 °FPartly sunny.8 mph76%29.83 "Hg10 mi
2:51 PM74 °FPartly sunny.9 mph76%29.85 "Hg10 mi
1:51 PM74 °FScattered clouds.8 mph76%29.87 "Hg10 mi
12:51 PM75 °FPartly sunny.12 mph71%29.89 "Hg10 mi
11:51 AM74 °FSunny.9 mph76%29.88 "Hg9 mi
10:51 AM75 °FSunny.8 mph74%29.88 "Hg9 mi
9:51 AM75 °FSunny.7 mph71%29.87 "Hg8 mi
8:51 AM73 °FSunny.No wind74%29.87 "Hg10 mi
7:51 AM70 °FSunny.No wind81%29.86 "Hg8 mi
6:51 AM68 °FPassing clouds.3 mph84%29.84 "Hg8 mi
5:51 AM67 °FLow clouds.No wind87%29.82 "Hg10 mi
4:51 AM66 °FLow clouds.No wind87%29.79 "Hg10 mi
3:51 AM64 °FLow clouds.No wind94%29.78 "Hg9 mi
2:51 AM64 °FClear.No wind90%29.80 "Hg9 mi
1:51 AM64 °FClear.No wind90%29.80 "Hg10 mi
12:51 AM64 °FClear.3 mph90%29.80 "Hg10 mi
11:51 PM
Fri, Jul 29
65 °FClear.3 mph87%29.81 "Hg10 mi
10:51 PM64 °FClear.3 mph90%29.80 "Hg10 mi
Weather by CustomWeather, © 2016

See weather overviewHow to use our weather pages